User: anonymous   Login
Location: Unspecified
(0.0000°N, 0.0000°E)
Time: 19:12:59
(UTC+00:00)
Language:

NOSS 7 (E) - Orbit

View from above orbital plane
View from above orbital plane
View from above satellite
View from above satellite

Ground track
Ground track

The orbit data is extracted from the following two-line orbital elements,

1 16624U 86014E   21136.90678238  .00001302  00000-0  12726-3 0  9991
2 16624  63.3006  44.2235 0931261  81.8401 288.7056 13.46924386 96752
Epoch (UTC): 16 May 2021 21:45:45
Eccentricity: 0.0931261
inclination: 63.3006°
perigee height: 389 km
apogee height: 1778 km
right ascension of ascending node: 44.2235°
argument of perigee: 81.8401°
revolutions per day: 13.46924386
mean anomaly at epoch: 288.7056°
orbit number at epoch: 9675

The dashed part of the orbit path shows where the satellite is in the earth's shadow,  

DLR